TimeCST,TemperatureF,Dew PointF,Humidity,Sea Level PressureIn,VisibilityMPH,Wind Direction,Wind SpeedMPH,Gust SpeedMPH,PrecipitationIn,Events,Conditions,WindDirDegrees,DateUTC
12:15 AM,24.8,17.6,74,30.06,10.0,SSE,10.4,-,N/A,,Clear,150,2012-02-19 06:15:00
12:35 AM,24.8,17.6,74,30.06,10.0,SSE,10.4,-,N/A,,Clear,150,2012-02-19 06:35:00
12:55 AM,24.8,15.8,69,30.06,10.0,SSE,9.2,-,N/A,,Clear,160,2012-02-19 06:55:00
1:15 AM,23.0,15.8,74,30.06,10.0,SSE,8.1,-,N/A,,Clear,150,2012-02-19 07:15:00
1:35 AM,21.2,15.8,80,30.06,10.0,SSE,4.6,-,N/A,,Clear,150,2012-02-19 07:35:00
1:55 AM,21.2,15.8,80,30.06,10.0,SE,3.5,-,N/A,,Clear,140,2012-02-19 07:55:00
2:15 AM,17.6,12.2,79,30.06,10.0,Calm,Calm,-,N/A,,Clear,0,2012-02-19 08:15:00
2:35 AM,14.0,10.4,86,30.06,10.0,East,3.5,-,N/A,,Clear,100,2012-02-19 08:35:00
2:55 AM,15.8,12.2,86,30.05,10.0,ESE,8.1,-,N/A,,Clear,120,2012-02-19 08:55:00
3:15 AM,19.4,15.8,86,30.04,10.0,SE,8.1,-,N/A,,Clear,130,2012-02-19 09:15:00
3:35 AM,19.4,15.8,86,30.03,10.0,SE,6.9,-,N/A,,Clear,130,2012-02-19 09:35:00
3:55 AM,17.6,14.0,86,30.03,10.0,SE,8.1,-,N/A,,Clear,130,2012-02-19 09:55:00
4:15 AM,19.4,15.8,86,30.03,10.0,SE,9.2,-,N/A,,Clear,140,2012-02-19 10:15:00
4:35 AM,19.4,14.0,80,30.02,10.0,SE,8.1,-,N/A,,Clear,140,2012-02-19 10:35:00
4:54 AM,17.6,14.0,86,30.02,10.0,SE,10.4,-,N/A,,Clear,140,2012-02-19 10:54:00
5:14 AM,19.4,15.8,86,30.02,10.0,SSE,11.5,-,N/A,,Clear,150,2012-02-19 11:14:00
5:35 AM,17.6,14.0,86,30.02,10.0,SE,10.4,-,N/A,,Clear,140,2012-02-19 11:35:00
5:55 AM,17.6,15.8,93,30.01,10.0,SE,8.1,-,N/A,,Clear,140,2012-02-19 11:55:00
6:15 AM,17.6,15.8,93,30.01,10.0,SE,9.2,-,N/A,,Clear,140,2012-02-19 12:15:00
6:35 AM,19.4,15.8,86,30.00,10.0,SE,10.4,-,N/A,,Clear,140,2012-02-19 12:35:00
6:55 AM,19.4,15.8,86,30.00,10.0,SE,6.9,-,N/A,,Clear,130,2012-02-19 12:55:00
7:15 AM,17.6,15.8,93,30.00,10.0,SE,9.2,-,N/A,,Clear,130,2012-02-19 13:15:00
7:34 AM,17.6,15.8,93,30.00,10.0,SE,9.2,-,N/A,,Clear,130,2012-02-19 13:34:00
7:55 AM,19.4,15.8,86,30.00,10.0,SE,9.2,-,N/A,,Clear,130,2012-02-19 13:55:00
8:15 AM,21.2,17.6,86,30.00,10.0,SE,9.2,-,N/A,,Clear,140,2012-02-19 14:15:00
8:35 AM,21.2,17.6,86,30.00,10.0,SE,8.1,-,N/A,,Clear,140,2012-02-19 14:35:00
9:15 AM,28.4,19.4,69,29.99,10.0,SE,11.5,17.3,N/A,,Clear,140,2012-02-19 15:15:00
9:34 AM,30.2,19.4,64,29.99,10.0,SSE,10.4,-,N/A,,Clear,150,2012-02-19 15:34:00
9:54 AM,32.0,19.4,60,29.99,10.0,South,15.0,20.7,N/A,,Clear,170,2012-02-19 15:54:00
10:15 AM,33.8,19.4,56,29.98,10.0,SSE,12.7,18.4,N/A,,Clear,160,2012-02-19 16:15:00
10:35 AM,35.6,19.4,52,29.98,10.0,South,15.0,20.7,N/A,,Clear,170,2012-02-19 16:35:00
10:55 AM,37.4,19.4,48,29.98,10.0,South,15.0,21.9,N/A,,Clear,170,2012-02-19 16:55:00
11:14 AM,37.4,21.2,52,29.97,10.0,SSE,17.3,23.0,N/A,,Clear,160,2012-02-19 17:14:00
11:34 AM,41.0,21.2,45,29.97,10.0,SSE,15.0,21.9,N/A,,Clear,160,2012-02-19 17:34:00
11:55 AM,44.6,19.4,37,29.96,10.0,South,15.0,23.0,N/A,,Clear,170,2012-02-19 17:55:00
12:15 PM,44.6,17.6,34,29.95,10.0,South,18.4,25.3,N/A,,Clear,170,2012-02-19 18:15:00
12:35 PM,44.6,17.6,34,29.94,10.0,SSE,16.1,26.5,N/A,,Clear,160,2012-02-19 18:35:00
12:55 PM,46.4,17.6,32,29.93,10.0,SSE,15.0,24.2,N/A,,Clear,160,2012-02-19 18:55:00
1:15 PM,46.4,17.6,32,29.92,10.0,SSE,16.1,24.2,N/A,,Clear,160,2012-02-19 19:15:00
1:35 PM,48.2,15.8,27,29.91,10.0,SSE,17.3,26.5,N/A,,Clear,160,2012-02-19 19:35:00
1:55 PM,48.2,15.8,27,29.90,7.0,South,19.6,26.5,N/A,,Clear,170,2012-02-19 19:55:00
2:35 PM,48.2,15.8,27,29.89,10.0,South,18.4,26.5,N/A,,Clear,170,2012-02-19 20:35:00
2:55 PM,48.2,17.6,30,29.89,10.0,South,18.4,25.3,N/A,,Clear,170,2012-02-19 20:55:00
3:15 PM,48.2,17.6,30,29.89,10.0,SSE,17.3,24.2,N/A,,Clear,160,2012-02-19 21:15:00
3:55 PM,46.4,17.6,32,29.89,10.0,SSE,17.3,25.3,N/A,,Clear,160,2012-02-19 21:55:00
4:15 PM,46.4,17.6,32,29.89,10.0,SSE,17.3,23.0,N/A,,Clear,160,2012-02-19 22:15:00
4:35 PM,46.4,17.6,32,29.89,10.0,SSE,12.7,18.4,N/A,,Clear,160,2012-02-19 22:35:00
4:55 PM,44.6,15.8,31,29.90,10.0,SSE,16.1,25.3,N/A,,Clear,160,2012-02-19 22:55:00
5:15 PM,44.6,17.6,34,29.90,10.0,SSE,16.1,23.0,N/A,,Clear,160,2012-02-19 23:15:00
5:35 PM,42.8,17.6,36,29.90,10.0,SSE,16.1,21.9,N/A,,Clear,160,2012-02-19 23:35:00
5:55 PM,41.0,17.6,39,29.91,10.0,SSE,12.7,20.7,N/A,,Clear,160,2012-02-19 23:55:00
6:15 PM,39.2,17.6,42,29.90,10.0,SSE,15.0,18.4,N/A,,Clear,150,2012-02-20 00:15:00
6:35 PM,39.2,19.4,45,29.91,10.0,SSE,15.0,21.9,N/A,,Clear,150,2012-02-20 00:35:00
6:55 PM,37.4,21.2,52,29.91,10.0,SSE,12.7,19.6,N/A,,Clear,150,2012-02-20 00:55:00
7:15 PM,37.4,21.2,52,29.92,10.0,SSE,12.7,17.3,N/A,,Clear,150,2012-02-20 01:15:00
7:35 PM,37.4,23.0,56,29.92,10.0,SSE,10.4,-,N/A,,Clear,160,2012-02-20 01:35:00
7:55 PM,37.4,24.8,60,29.92,10.0,SSE,16.1,23.0,N/A,,Clear,160,2012-02-20 01:55:00
8:15 PM,35.6,24.8,65,29.92,10.0,SSE,12.7,24.2,N/A,,Clear,150,2012-02-20 02:15:00
8:35 PM,35.6,24.8,65,29.92,10.0,SSE,12.7,18.4,N/A,,Clear,160,2012-02-20 02:35:00
8:55 PM,35.6,24.8,65,29.92,10.0,SSE,11.5,20.7,N/A,,Clear,160,2012-02-20 02:55:00
9:15 PM,35.6,24.8,65,29.92,10.0,SSE,10.4,18.4,N/A,,Clear,160,2012-02-20 03:15:00
9:35 PM,35.6,24.8,65,29.93,10.0,SSE,11.5,17.3,N/A,,Clear,160,2012-02-20 03:35:00
9:55 PM,33.8,24.8,70,29.93,10.0,South,12.7,-,N/A,,Clear,170,2012-02-20 03:55:00
10:15 PM,35.6,24.8,65,29.94,10.0,South,13.8,19.6,N/A,,Clear,170,2012-02-20 04:15:00
10:35 PM,35.6,24.8,65,29.94,10.0,South,11.5,18.4,N/A,,Clear,170,2012-02-20 04:35:00
10:55 PM,35.6,24.8,65,29.93,10.0,SSE,13.8,18.4,N/A,,Mostly Cloudy,160,2012-02-20 04:55:00
11:15 PM,33.8,24.8,70,29.93,10.0,SSE,11.5,20.7,N/A,,Overcast,160,2012-02-20 05:15:00
11:35 PM,33.8,24.8,70,29.93,10.0,SSE,13.8,-,N/A,,Overcast,150,2012-02-20 05:35:00
11:55 PM,33.8,24.8,70,29.93,10.0,SSE,11.5,-,N/A,,Overcast,160,2012-02-20 05:55:00